| time (UTC) | temp F | wind direction | speed knots | gust knots | rain 1hr in | rain 24hr in | rain mn in | humidity % | barometer mb |
| 20260507010115 | 59 | 185 | 0.0 | 0.9 | 0.00 | 0.13 | 0.13 | 95 | 1004.8 |
| 20260507005117 | 59 | 185 | 0.0 | 1.7 | 0.00 | 0.13 | 0.13 | 95 | 1004.8 |
| 20260507004115 | 59 | 185 | 0.0 | 0.9 | 0.00 | 0.13 | 0.13 | 95 | 1004.8 |
| 20260507003114 | 59 | 185 | 0.0 | 0.9 | 0.00 | 0.13 | 0.13 | 95 | 1005.0 |
| 20260507002116 | 59 | 185 | 0.0 | 0.9 | 0.00 | 0.13 | 0.13 | 95 | 1004.5 |
| 20260507001558 | 59 | 185 | 0.0 | 1.7 | 0.00 | 0.13 | 0.13 | 95 | 1004.7 |
| 20260507000113 | 59 | 185 | 0.0 | 2.6 | 0.00 | 0.13 | 0.13 | 95 | 1004.9 |
| 20260506235116 | 59 | 185 | 0.0 | 0.9 | 0.00 | 0.13 | 0.13 | 95 | 1004.9 |
| 20260506234108 | 59 | 185 | 0.0 | 0.9 | 0.00 | 0.13 | 0.13 | 95 | 1004.7 |
| 20260506233108 | 59 | 185 | 0.0 | 3.5 | 0.00 | 0.13 | 0.13 | 95 | 1004.7 |
| 20260506232108 | 59 | 185 | 0.0 | 1.7 | 0.00 | 0.13 | 0.13 | 95 | 1004.7 |
| 20260506231108 | 59 | 185 | 0.0 | 2.6 | 0.00 | 0.13 | 0.13 | 95 | 1004.5 |
| 20260506230550 | 59 | 185 | 0.0 | 1.7 | 0.00 | 0.13 | 0.13 | 95 | 1004.4 |
| 20260506225109 | 59 | 185 | 0.0 | 2.6 | 0.00 | 0.13 | 0.13 | 95 | 1004.3 |
| 20260506224108 | 59 | 185 | 0.0 | 3.5 | 0.00 | 0.13 | 0.13 | 95 | 1004.3 |
| 20260506224047 | 59 | 185 | 0.0 | 1.7 | 0.01 | 0.13 | 0.13 | 95 | 1004.3 |
| 20260506222110 | 59 | 185 | 0.0 | 2.6 | 0.01 | 0.13 | 0.13 | 95 | 1004.2 |
| 20260506221103 | 59 | 185 | 0.0 | 1.7 | 0.01 | 0.13 | 0.13 | 95 | 1004.2 |
| 20260506215103 | 59 | 185 | 0.0 | 2.6 | 0.01 | 0.13 | 0.13 | 95 | 1004.3 |
| 20260506214102 | 59 | 185 | 0.0 | 2.6 | 0.01 | 0.13 | 0.13 | 95 | 1004.2 |
| 20260506213101 | 59 | 185 | 0.0 | 3.5 | 0.01 | 0.12 | 0.12 | 95 | 1004.2 |
| 20260506212058 | 59 | 185 | 0.9 | 2.6 | 0.01 | 0.12 | 0.12 | 94 | 1004.3 |
| 20260506211057 | 59 | 185 | 0.0 | 2.6 | 0.02 | 0.12 | 0.12 | 94 | 1004.3 |
| 20260506210057 | 60 | 185 | 0.0 | 2.6 | 0.03 | 0.12 | 0.12 | 95 | 1004.3 |
| 20260506205055 | 59 | 185 | 0.9 | 2.6 | 0.04 | 0.12 | 0.12 | 94 | 1004.5 |
| 20260506204058 | 60 | 106 | 0.0 | 1.7 | 0.05 | 0.12 | 0.12 | 95 | 1004.8 |
| 20260506203056 | 60 | 106 | 0.0 | 1.7 | 0.04 | 0.11 | 0.11 | 94 | 1004.8 |
| 20260506202535 | 60 | 101 | 0.0 | 2.6 | 0.05 | 0.11 | 0.11 | 94 | 1004.8 |
| 20260506201537 | 60 | 170 | 0.0 | 1.7 | 0.04 | 0.10 | 0.10 | 94 | 1004.8 |
| 20260506200056 | 60 | 170 | 0.9 | 3.5 | 0.03 | 0.09 | 0.09 | 94 | 1004.8 |
| 20260506195542 | 60 | 171 | 0.9 | 4.3 | 0.02 | 0.08 | 0.08 | 94 | 1005.0 |
| 20260506194054 | 60 | 170 | 0.0 | 1.7 | 0.01 | 0.07 | 0.07 | 94 | 1005.0 |
| 20260506193054 | 60 | 170 | 0.0 | 3.5 | 0.02 | 0.07 | 0.07 | 94 | 1005.1 |
| 20260506192054 | 59 | 171 | 0.9 | 4.3 | 0.02 | 0.06 | 0.06 | 94 | 1005.2 |
| 20260506191055 | 59 | 171 | 0.9 | 5.2 | 0.03 | 0.06 | 0.06 | 94 | 1005.4 |
| 20260506190551 | 59 | 170 | 0.9 | 5.2 | 0.03 | 0.06 | 0.06 | 93 | 1005.3 |
| 20260506190018 | 59 | 188 | 0.9 | 5.2 | 0.03 | 0.06 | 0.06 | 93 | 1005.5 |
| 20260506184054 | 59 | 278 | 0.9 | 4.3 | 0.04 | 0.06 | 0.06 | 93 | 1005.5 |
| 20260506183529 | 60 | 182 | 0.9 | 5.2 | 0.04 | 0.05 | 0.05 | 93 | 1005.7 |
| 20260506182533 | 60 | 180 | 0.9 | 3.5 | 0.03 | 0.04 | 0.04 | 92 | 1005.8 |
| 20260506181049 | 60 | 234 | 0.9 | 3.5 | 0.03 | 0.03 | 0.04 | 92 | 1005.8 |
| 20260506181003 | 60 | 189 | 0.9 | 1.7 | 0.03 | 0.03 | 0.03 | 91 | 1005.7 |
| 20260506175049 | 61 | 189 | 0.9 | 3.5 | 0.03 | 0.03 | 0.03 | 90 | 1005.8 |
| 20260506174047 | 62 | 194 | 0.9 | 3.5 | 0.02 | 0.02 | 0.02 | 90 | 1005.8 |
| 20260506173048 | 62 | 170 | 0.9 | 4.3 | 0.01 | 0.01 | 0.01 | 88 | 1005.9 |
| 20260506172536 | 63 | 170 | 0.9 | 6.1 | 0.01 | 0.01 | 0.01 | 86 | 1006.4 |
| 20260506171527 | 64 | 170 | 0.9 | 3.5 | 0.00 | 0.00 | 0.00 | 84 | 1006.8 |
| 20260506170046 | 65 | 170 | 0.9 | 5.2 | 0.00 | 0.00 | 0.00 | 83 | 1006.9 |
| 20260506165043 | 66 | 166 | 0.0 | 2.6 | 0.00 | 0.00 | 0.00 | 81 | 1006.8 |
| 20260506165002 | 66 | 158 | 1.7 | 7.0 | 0.00 | 0.00 | 0.00 | 78 | 1006.9 |
| 20260506163043 | 67 | 175 | 1.7 | 7.0 | 0.00 | 0.00 | 0.00 | 77 | 1006.8 |
| 20260506162519 | 67 | 165 | 1.7 | 5.2 | 0.00 | 0.00 | 0.00 | 77 | 1006.7 |
| 20260506161520 | 67 | 171 | 0.9 | 5.2 | 0.00 | 0.00 | 0.00 | 76 | 1006.7 |
| 20260506160958 | 67 | 189 | 0.9 | 4.3 | 0.00 | 0.00 | 0.00 | 76 | 1006.8 |
| 20260506155524 | 67 | 189 | 0.9 | 3.5 | 0.00 | 0.00 | 0.00 | 75 | 1006.9 |
| 20260506154045 | 67 | 189 | 0.9 | 5.2 | 0.00 | 0.00 | 0.00 | 75 | 1007.2 |
| 20260506153037 | 67 | 171 | 1.7 | 7.0 | 0.00 | 0.00 | 0.00 | 75 | 1007.1 |
| 20260506152521 | 67 | 173 | 0.9 | 5.2 | 0.00 | 0.00 | 0.00 | 75 | 1007.1 |
| 20260506151523 | 67 | 167 | 1.7 | 6.1 | 0.00 | 0.00 | 0.00 | 76 | 1007.1 |
| 20260506150035 | 67 | 171 | 0.9 | 5.2 | 0.00 | 0.00 | 0.00 | 76 | 1007.0 |
| 20260506145036 | 67 | 171 | 1.7 | 7.0 | 0.00 | 0.00 | 0.00 | 77 | 1007.2 |
| 20260506144035 | 66 | 190 | 0.9 | 2.6 | 0.00 | 0.00 | 0.00 | 79 | 1007.1 |
| 20260506143035 | 66 | 190 | 0.0 | 1.7 | 0.00 | 0.00 | 0.00 | 79 | 1007.4 |
| 20260506142037 | 66 | 190 | 0.9 | 3.5 | 0.00 | 0.00 | 0.00 | 80 | 1007.3 |
| 20260506141038 | 65 | 235 | 1.7 | 6.1 | 0.00 | 0.00 | 0.00 | 80 | 1007.4 |
| 20260506140033 | 65 | 169 | 1.7 | 6.1 | 0.00 | 0.00 | 0.00 | 82 | 1007.4 |
| 20260506135526 | 64 | 190 | 0.9 | 7.0 | 0.00 | 0.00 | 0.00 | 82 | 1007.5 |
| 20260506134033 | 64 | 182 | 0.9 | 4.3 | 0.00 | 0.00 | 0.00 | 83 | 1007.2 |
| 20260506133034 | 64 | 182 | 0.9 | 3.5 | 0.00 | 0.00 | 0.00 | 84 | 1007.2 |
| 20260506132034 | 63 | 182 | 0.9 | 5.2 | 0.00 | 0.00 | 0.00 | 86 | 1007.2 |
| 20260506131032 | 62 | 186 | 0.0 | 2.6 | 0.00 | 0.00 | 0.00 | 87 | 1007.5 |
| 20260506130034 | 61 | 186 | 0.0 | 1.7 | 0.00 | 0.00 | 0.00 | 88 | 1007.5 |
| 20260506125520 | 61 | 186 | 0.0 | 1.7 | 0.00 | 0.00 | 0.00 | 88 | 1007.7 |
| 20260506124030 | 60 | 186 | 0.9 | 3.5 | 0.00 | 0.00 | 0.00 | 88 | 1007.8 |
| 20260506123031 | 60 | 186 | 0.9 | 5.2 | 0.00 | 0.00 | 0.00 | 88 | 1008.1 |
| 20260506122519 | 60 | 188 | 0.9 | 3.5 | 0.00 | 0.00 | 0.00 | 89 | 1008.1 |
| 20260506121032 | 59 | 188 | 0.9 | 6.1 | 0.00 | 0.00 | 0.00 | 89 | 1008.0 |
| 20260506120031 | 59 | 177 | 0.9 | 3.5 | 0.00 | 0.00 | 0.00 | 89 | 1007.9 |
| 20260506115032 | 59 | 177 | 0.0 | 1.7 | 0.00 | 0.00 | 0.00 | 90 | 1007.9 |
| 20260506114514 | 58 | 177 | 0.9 | 4.3 | 0.00 | 0.00 | 0.00 | 90 | 1007.9 |
| 20260506113032 | 58 | 177 | 0.9 | 7.8 | 0.00 | 0.00 | 0.00 | 90 | 1008.0 |
| 20260506112523 | 58 | 188 | 0.0 | 2.6 | 0.00 | 0.00 | 0.00 | 91 | 1007.9 |
| 20260506111505 | 57 | 188 | 0.0 | 2.6 | 0.00 | 0.00 | 0.00 | 91 | 1008.0 |
| 20260506110024 | 57 | 188 | 0.9 | 3.5 | 0.00 | 0.00 | 0.00 | 91 | 1008.3 |
| 20260506105023 | 57 | 188 | 0.9 | 2.6 | 0.00 | 0.00 | 0.00 | 91 | 1008.1 |
| 20260506104509 | 56 | 188 | 0.9 | 4.3 | 0.00 | 0.00 | 0.00 | 91 | 1007.9 |
| 20260506103506 | 56 | 188 | 0.0 | 1.7 | 0.00 | 0.00 | 0.00 | 92 | 1008.2 |
| 20260506102027 | 56 | 188 | 0.0 | 1.7 | 0.00 | 0.00 | 0.00 | 92 | 1008.0 |
| 20260506101025 | 56 | 188 | 0.0 | 1.7 | 0.00 | 0.00 | 0.00 | 91 | 1007.9 |
| 20260506100022 | 56 | 188 | 0.9 | 2.6 | 0.00 | 0.00 | 0.00 | 91 | 1007.8 |
| 20260506095024 | 56 | 188 | 0.9 | 3.5 | 0.00 | 0.00 | 0.00 | 91 | 1007.9 |
| 20260506094024 | 56 | 188 | 0.0 | 0.9 | 0.00 | 0.00 | 0.00 | 91 | 1007.8 |
| 20260506093023 | 56 | 188 | 0.9 | 2.6 | 0.00 | 0.00 | 0.00 | 91 | 1007.7 |
| 20260506092024 | 57 | 188 | 0.0 | 0.9 | 0.00 | 0.00 | 0.00 | 90 | 1007.8 |
| 20260506091023 | 57 | 188 | 0.0 | 1.7 | 0.00 | 0.00 | 0.00 | 90 | 1007.9 |
| 20260506090024 | 57 | 188 | 0.0 | 2.6 | 0.00 | 0.00 | 0.00 | 90 | 1007.9 |
| 20260506085453 | 57 | 188 | 0.0 | 0.9 | 0.00 | 0.00 | 0.00 | 89 | 1007.9 |
| 20260506084018 | 57 | 188 | 0.0 | 1.7 | 0.00 | 0.00 | 0.00 | 89 | 1007.9 |
| 20260506083420 | 58 | 194 | 0.9 | 3.5 | 0.00 | 0.00 | 0.00 | 89 | 1008.0 |
| 20260506083049 | 58 | 188 | 0.9 | 3.5 | 0.00 | 0.00 | 0.00 | 89 | 1007.9 |
| 20260506081456 | 58 | 194 | 0.9 | 3.5 | 0.00 | 0.00 | 0.00 | 89 | 1007.9 |
| 20260506080454 | 58 | 293 | 0.0 | 0.9 | 0.00 | 0.00 | 0.00 | 88 | 1007.8 |
| 20260506073016 | 58 | 165 | 0.0 | 4.3 | 0.00 | 0.00 | 0.00 | 87 | 1007.9 |
| 20260506072009 | 59 | 167 | 0.9 | 7.8 | 0.00 | 0.00 | 0.00 | 86 | 1007.9 |
| 20260506071011 | 59 | 178 | 0.9 | 2.6 | 0.00 | 0.00 | 0.00 | 86 | 1007.9 |
| 20260506062008 | 59 | 173 | 0.0 | 1.7 | 0.00 | 0.00 | 0.00 | 85 | 1007.7 |
| 20260506061456 | 60 | 173 | 0.0 | 0.9 | 0.00 | 0.00 | 0.00 | 83 | 1007.7 |
| 20260506060447 | 60 | 173 | 0.0 | 0.9 | 0.00 | 0.00 | 0.00 | 82 | 1007.7 |
| 20260506051003 | 61 | 173 | 0.0 | 1.7 | 0.00 | 0.00 | 0.00 | 79 | 1008.2 |
| 20260506045003 | 62 | 173 | 0.9 | 2.6 | 0.00 | 0.00 | 0.00 | 78 | 1008.1 |
| 20260506044445 | 62 | 173 | 0.0 | 1.7 | 0.00 | 0.00 | 0.00 | 78 | 1008.3 |
| 20260506043003 | 62 | 173 | 0.9 | 5.2 | 0.00 | 0.00 | 0.00 | 77 | 1008.2 |
| 20260506041957 | 62 | 175 | 0.0 | 2.6 | 0.00 | 0.00 | 0.00 | 77 | 1008.2 |
| 20260506040957 | 62 | 175 | 0.0 | 1.7 | 0.00 | 0.00 | 0.00 | 77 | 1008.2 |
| 20260506035957 | 62 | 175 | 0.9 | 5.2 | 0.00 | 0.00 | 0.00 | 76 | 1008.2 |
| 20260506035928 | 62 | 175 | 0.9 | 5.2 | 0.00 | 0.00 | 0.00 | 76 | 1008.2 |
| 20260506033956 | 62 | 175 | 0.0 | 2.6 | 0.00 | 0.00 | 0.00 | 76 | 1008.2 |
| 20260506032958 | 62 | 302 | 0.0 | 2.6 | 0.00 | 0.00 | 0.00 | 75 | 1008.2 |
| 20260506031958 | 62 | 165 | 0.9 | 6.1 | 0.00 | 0.00 | 0.00 | 75 | 1008.1 |
| 20260506030957 | 62 | 188 | 0.9 | 2.6 | 0.00 | 0.00 | 0.00 | 74 | 1008.2 |
| 20260506025959 | 62 | 188 | 0.0 | 1.7 | 0.00 | 0.00 | 0.00 | 74 | 1008.2 |
| 20260506024953 | 63 | 188 | 0.0 | 2.6 | 0.00 | 0.00 | 0.00 | 74 | 1008.1 |
| 20260506023951 | 63 | 188 | 0.0 | 3.5 | 0.00 | 0.00 | 0.00 | 73 | 1008.1 |
| 20260506023439 | 63 | 188 | 0.0 | 4.3 | 0.00 | 0.00 | 0.00 | 73 | 1008.0 |
| 20260506021950 | 63 | 188 | 0.0 | 3.5 | 0.00 | 0.00 | 0.00 | 72 | 1008.0 |
| 20260506020949 | 63 | 188 | 0.9 | 2.6 | 0.00 | 0.00 | 0.00 | 72 | 1008.0 |
| 20260506015949 | 63 | 188 | 0.9 | 4.3 | 0.00 | 0.00 | 0.00 | 72 | 1008.0 |
| 20260506014947 | 63 | 193 | 0.0 | 1.7 | 0.00 | 0.00 | 0.00 | 72 | 1008.0 |
| 20260506013948 | 64 | 233 | 0.0 | 1.7 | 0.00 | 0.00 | 0.00 | 71 | 1007.9 |
| 20260506012947 | 64 | 217 | 0.9 | 2.6 | 0.00 | 0.00 | 0.00 | 71 | 1007.7 |
| 20260506011941 | 64 | 181 | 0.9 | 2.6 | 0.00 | 0.00 | 0.00 | 71 | 1007.7 |